Regional Weather Roundup
Issued by NWS Green Bay, WI

Home | Current Version | Previous Version | Graphics & Text | Print | Product List | Glossary Off
Versions: 1 2 3 4 5 6 7 8 9 10 11 12 13 14 15 16 17 18 19 20 21 22 23 24 25 26 27 28 29 30 31 32 33 34 35 36 37 38 39 40 41 42 43 44 45 46 47 48 49 50

000
ASUS43 KGRB 011159
RWRGRB

NORTH-CENTRAL AND NORTHEAST WISCONSIN REGIONAL WEATHER ROUNDUP
NATIONAL WEATHER SERVICE GREEN BAY WI
700 AM CDT MON SEP 01 2014

WIZ005-009-010>012-018-019-011300-
NORTH CENTRAL WISCONSIN

CITY           SKY/WX    TMP DP  RH WIND       PRES   REMARKS
IRONWOOD       NOT AVBL
MANITOWISH WTR NOT AVBL
ARBOR VITAE    NOT AVBL
EAGLE RIVER    NOT AVBL
LAND O LAKES   NOT AVBL
RHINELANDER    CLOUDY    62  60  93 S6        29.67F
PHILLIPS       NOT AVBL
ANTIGO         NOT AVBL
TOMAHAWK       NOT AVBL
MERRILL        NOT AVBL
$$

WIZ013-073-011300-
NORTHEAST WISCONSIN

CITY           SKY/WX    TMP DP  RH WIND       PRES   REMARKS
IRON MOUNTAIN  MOCLDY    67  65  93 SE7       29.65F FOG
MARINETTE      MOCLDY    68  64  88 S9        29.66F
$$

WIZ017-030-035>037-045-011300-
CENTRAL WISCONSIN

CITY           SKY/WX    TMP DP  RH WIND       PRES   REMARKS
MEDFORD        NOT AVBL
WAUSAU         CLOUDY    66  60  81 S5        29.65R
MOSINEE        PTCLDY    63  63 100 S6        29.68R
MARSHFIELD     CLOUDY    63  61  93 SW6       29.67R
WISC RAPIDS    CLOUDY    66  60  81 CALM      29.67S
STEVENS POINT  NOT AVBL
WAUPACA        NOT AVBL
SHAWANO        NOT AVBL
CLINTONVILLE   NOT AVBL
$$

WIZ038-039-048-051-011300-
FOX VALLEY

CITY           SKY/WX    TMP DP  RH WIND       PRES   REMARKS
NWS GREEN BAY  PTCLDY    70  68  93 S9        29.66F
APPLETON       MOCLDY    70  68  94 S6        29.67F
OSHKOSH        CLOUDY    70  66  87 SE9       29.64F
FOND DU LAC    CLOUDY    70  66  87 MISG      29.66F
$$

WIZ022-050-052-011300-
EAST CENTRAL WISCONSIN

CITY           SKY/WX    TMP DP  RH WIND       PRES   REMARKS
STURGEON BAY   CLOUDY    68  64  88 S14       29.70F VSB 1/2
MANITOWOC      CLOUDY    68  66  94 S9        29.70F FOG
SHEBOYGAN      PTCLDY    68  67  96 SE8       29.70F FOG
$$

LMZ563-521-522-541>543-011300-
LAKESHORE

STATION/POSITION TIME  TEMP    WIND        PRES    VSBY  WAVE
                       AIR SEA DIR/SP/G                  HT/PER
                 (UTC) (F)     (DEG/KT/KT) (MB)    (MI)  (FT/S)
SHEBOYGAN LKSHOR 1100   69 55  180/ 15/ 16 1006.8F
KEWAUNEE LKSHORE 1100   61     170/ 10/ 11 1005.6F
NORTHPORT PIER   1100   68     160/  7/ 14 1005.8F
N MID LAKE BUOY  1100   68 65  180/ 17/ 19 1006.1F         3/ 4
S GREEN BAY BUOY 1100   71     VRB 14/ 17  1006.3F
CHAMBERS ISLAND  1100   69     140/  5/ 11 1005.8S
MENOMINEE LKSHOR 1100   69     160/ 14/ 17 1005.8F
$$


USA.gov is the U.S. government's official web portal to all federal, state and local government web resources and services.